| time (UTC) | temp F | wind direction | speed MPH | gust MPH | rain 1hr in | rain 24hr in | rain mn in | humidity % | barometer mb |
| 20260505002124 | 52 | 228 | 9.0 | 12.0 | 0.00 | 0.00 | 0.00 | 83 | 1012.3 |
| 20260505001621 | 52 | 201 | 11.0 | 12.0 | 0.00 | 0.00 | 0.00 | 83 | 1012.3 |
| 20260505001118 | 52 | 294 | 7.0 | 8.0 | 0.00 | 0.00 | 0.00 | 83 | 1012.0 |
| 20260505000615 | 52 | 246 | 6.0 | 6.0 | 0.00 | 0.00 | 0.00 | 83 | 1012.0 |
| 20260505000113 | 52 | 274 | 8.0 | 8.0 | 0.00 | 0.00 | 0.00 | 84 | 1012.0 |
| 20260504235609 | 52 | 287 | 5.0 | 5.0 | 0.00 | 0.00 | 0.00 | 84 | 1012.0 |
| 20260504235106 | 52 | 270 | 11.0 | 11.0 | 0.00 | 0.00 | 0.00 | 82 | 1012.0 |
| 20260504234603 | 53 | 264 | 6.0 | 7.0 | 0.00 | 0.00 | 0.00 | 81 | 1011.3 |
| 20260504234100 | 53 | 174 | 12.0 | 13.0 | 0.00 | 0.00 | 0.00 | 80 | 1011.3 |
| 20260504233555 | 53 | 228 | 15.0 | 18.0 | 0.00 | 0.00 | 0.00 | 79 | 1011.3 |
| 20260504233052 | 54 | 246 | 9.0 | 11.0 | 0.00 | 0.00 | 0.00 | 78 | 1011.3 |
| 20260504232549 | 54 | 186 | 14.0 | 17.0 | 0.00 | 0.00 | 0.00 | 77 | 1011.3 |
| 20260504232047 | 54 | 202 | 13.0 | 15.0 | 0.00 | 0.00 | 0.00 | 77 | 1011.3 |
| 20260504231543 | 54 | 204 | 11.0 | 11.0 | 0.00 | 0.00 | 0.00 | 77 | 1011.3 |
| 20260504231039 | 54 | 204 | 18.0 | 20.0 | 0.00 | 0.00 | 0.00 | 76 | 1011.3 |
| 20260504230536 | 54 | 240 | 14.0 | 16.0 | 0.00 | 0.00 | 0.00 | 76 | 1011.3 |
| 20260504230035 | 54 | 217 | 15.0 | 16.0 | 0.00 | 0.00 | 0.00 | 76 | 1011.3 |
| 20260504225532 | 54 | 218 | 11.0 | 11.0 | 0.00 | 0.00 | 0.00 | 75 | 1011.3 |
| 20260504225029 | 55 | 240 | 13.0 | 15.0 | 0.00 | 0.00 | 0.00 | 74 | 1011.3 |
| 20260504224525 | 55 | 222 | 17.0 | 19.0 | 0.00 | 0.00 | 0.00 | 73 | 1011.3 |
| 20260504224023 | 55 | 219 | 16.0 | 18.0 | 0.00 | 0.00 | 0.00 | 73 | 1011.0 |
| 20260504223519 | 55 | 201 | 12.0 | 13.0 | 0.00 | 0.00 | 0.00 | 73 | 1011.0 |
| 20260504223015 | 55 | 206 | 15.0 | 18.0 | 0.00 | 0.00 | 0.00 | 73 | 1011.0 |
| 20260504222512 | 55 | 204 | 13.0 | 15.0 | 0.00 | 0.00 | 0.00 | 72 | 1011.3 |
| 20260504222010 | 56 | 216 | 14.0 | 16.0 | 0.00 | 0.00 | 0.00 | 71 | 1011.3 |
| 20260504221507 | 56 | 217 | 15.0 | 16.0 | 0.00 | 0.00 | 0.00 | 69 | 1011.3 |
| 20260504221003 | 56 | 219 | 13.0 | 15.0 | 0.00 | 0.00 | 0.00 | 70 | 1011.0 |
| 20260504220500 | 56 | 192 | 12.0 | 13.0 | 0.00 | 0.00 | 0.00 | 69 | 1011.0 |
| 20260504215956 | 56 | 222 | 19.0 | 22.0 | 0.00 | 0.00 | 0.00 | 70 | 1011.3 |
| 20260504215453 | 56 | 216 | 19.0 | 21.0 | 0.00 | 0.00 | 0.00 | 69 | 1011.3 |
| 20260504214950 | 56 | 208 | 21.0 | 23.0 | 0.00 | 0.00 | 0.00 | 68 | 1011.3 |
| 20260504214446 | 56 | 207 | 15.0 | 16.0 | 0.00 | 0.00 | 0.00 | 68 | 1011.3 |
| 20260504213943 | 56 | 180 | 18.0 | 21.0 | 0.00 | 0.00 | 0.00 | 68 | 1011.3 |
| 20260504213439 | 56 | 207 | 20.0 | 21.0 | 0.00 | 0.00 | 0.00 | 68 | 1011.3 |
| 20260504212937 | 57 | 222 | 17.0 | 18.0 | 0.00 | 0.00 | 0.00 | 66 | 1011.0 |
| 20260504212432 | 57 | 234 | 14.0 | 15.0 | 0.00 | 0.00 | 0.00 | 66 | 1011.0 |
| 20260504211930 | 57 | 186 | 21.0 | 23.0 | 0.00 | 0.00 | 0.00 | 65 | 1011.0 |
| 20260504211426 | 57 | 227 | 19.0 | 22.0 | 0.00 | 0.00 | 0.00 | 65 | 1011.3 |
| 20260504210924 | 57 | 218 | 11.0 | 12.0 | 0.00 | 0.00 | 0.00 | 66 | 1011.3 |
| 20260504210421 | 57 | 233 | 12.0 | 13.0 | 0.00 | 0.00 | 0.00 | 65 | 1011.3 |
| 20260504205918 | 57 | 206 | 20.0 | 23.0 | 0.00 | 0.00 | 0.00 | 65 | 1011.3 |
| 20260504205415 | 57 | 204 | 12.0 | 13.0 | 0.00 | 0.00 | 0.00 | 65 | 1011.3 |
| 20260504204913 | 56 | 240 | 18.0 | 20.0 | 0.00 | 0.00 | 0.00 | 64 | 1011.3 |
| 20260504204412 | 57 | 201 | 19.0 | 20.0 | 0.00 | 0.00 | 0.00 | 65 | 1011.0 |
| 20260504203911 | 56 | 198 | 20.0 | 22.0 | 0.00 | 0.00 | 0.00 | 65 | 1011.0 |
| 20260504203408 | 57 | 205 | 22.0 | 23.0 | 0.00 | 0.00 | 0.00 | 65 | 1011.0 |
| 20260504202903 | 57 | 198 | 13.0 | 15.0 | 0.00 | 0.00 | 0.00 | 64 | 1011.0 |
| 20260504202400 | 58 | 198 | 13.0 | 13.0 | 0.00 | 0.00 | 0.00 | 61 | 1011.0 |
| 20260504201857 | 58 | 227 | 12.0 | 13.0 | 0.00 | 0.00 | 0.00 | 61 | 1011.0 |
| 20260504201354 | 58 | 222 | 21.0 | 25.0 | 0.00 | 0.00 | 0.00 | 62 | 1011.0 |
| 20260504200852 | 58 | 212 | 14.0 | 16.0 | 0.00 | 0.00 | 0.00 | 63 | 1011.0 |
| 20260504200348 | 57 | 192 | 15.0 | 16.0 | 0.00 | 0.00 | 0.00 | 64 | 1011.0 |
| 20260504195845 | 58 | 198 | 21.0 | 23.0 | 0.00 | 0.00 | 0.00 | 63 | 1011.0 |
| 20260504195340 | 59 | 186 | 18.0 | 20.0 | 0.00 | 0.00 | 0.00 | 60 | 1011.0 |
| 20260504194837 | 59 | 204 | 13.0 | 17.0 | 0.00 | 0.00 | 0.00 | 61 | 1011.0 |
| 20260504194333 | 59 | 204 | 19.0 | 23.0 | 0.00 | 0.00 | 0.00 | 60 | 1011.3 |
| 20260504193829 | 58 | 198 | 11.0 | 12.0 | 0.00 | 0.00 | 0.00 | 62 | 1011.3 |
| 20260504193327 | 57 | 228 | 19.0 | 21.0 | 0.00 | 0.00 | 0.00 | 65 | 1011.3 |
| 20260504192826 | 57 | 210 | 18.0 | 20.0 | 0.00 | 0.00 | 0.00 | 65 | 1011.3 |
| 20260504192323 | 57 | 216 | 19.0 | 21.0 | 0.00 | 0.00 | 0.00 | 65 | 1011.3 |
| 20260504191821 | 57 | 228 | 13.0 | 15.0 | 0.00 | 0.00 | 0.00 | 65 | 1011.3 |
| 20260504191319 | 57 | 198 | 17.0 | 18.0 | 0.00 | 0.00 | 0.00 | 66 | 1011.7 |
| 20260504190814 | 57 | 218 | 21.0 | 23.0 | 0.00 | 0.00 | 0.00 | 63 | 1011.7 |
| 20260504190310 | 58 | 204 | 21.0 | 23.0 | 0.00 | 0.00 | 0.00 | 60 | 1011.7 |
| 20260504185807 | 58 | 204 | 14.0 | 16.0 | 0.00 | 0.00 | 0.00 | 60 | 1011.7 |
| 20260504185304 | 59 | 210 | 22.0 | 26.0 | 0.00 | 0.00 | 0.00 | 58 | 1011.7 |
| 20260504184800 | 58 | 237 | 20.0 | 23.0 | 0.00 | 0.00 | 0.00 | 58 | 1011.7 |
| 20260504184256 | 58 | 212 | 19.0 | 21.0 | 0.00 | 0.00 | 0.00 | 59 | 1012.0 |
| 20260504183752 | 58 | 235 | 25.0 | 31.0 | 0.00 | 0.00 | 0.00 | 57 | 1012.0 |
| 20260504183249 | 58 | 201 | 21.0 | 23.0 | 0.00 | 0.00 | 0.00 | 61 | 1012.0 |
| 20260504182747 | 58 | 216 | 15.0 | 16.0 | 0.00 | 0.00 | 0.00 | 59 | 1012.0 |
| 20260504182244 | 58 | 180 | 16.0 | 17.0 | 0.00 | 0.00 | 0.00 | 59 | 1012.0 |
| 20260504181741 | 58 | 204 | 15.0 | 16.0 | 0.00 | 0.00 | 0.00 | 58 | 1012.0 |
| 20260504181238 | 59 | 195 | 16.0 | 18.0 | 0.00 | 0.00 | 0.00 | 57 | 1012.0 |
| 20260504180738 | 59 | 210 | 9.0 | 12.0 | 0.00 | 0.00 | 0.00 | 56 | 1012.0 |
| 20260504180236 | 59 | 204 | 14.0 | 16.0 | 0.00 | 0.00 | 0.00 | 55 | 1012.0 |
| 20260504175733 | 59 | 219 | 16.0 | 18.0 | 0.00 | 0.00 | 0.00 | 55 | 1012.0 |
| 20260504175230 | 60 | 220 | 12.0 | 13.0 | 0.00 | 0.00 | 0.00 | 55 | 1012.0 |
| 20260504174728 | 58 | 192 | 11.0 | 12.0 | 0.00 | 0.00 | 0.00 | 56 | 1012.0 |
| 20260504174225 | 57 | 198 | 8.0 | 8.0 | 0.00 | 0.00 | 0.00 | 59 | 1012.3 |
| 20260504173721 | 57 | 204 | 13.0 | 15.0 | 0.00 | 0.00 | 0.00 | 59 | 1012.3 |
| 20260504173219 | 57 | 239 | 7.0 | 8.0 | 0.00 | 0.00 | 0.00 | 61 | 1012.3 |
| 20260504172715 | 59 | 222 | 8.0 | 9.0 | 0.00 | 0.00 | 0.00 | 53 | 1012.3 |
| 20260504172212 | 57 | 228 | 8.0 | 9.0 | 0.00 | 0.00 | 0.00 | 54 | 1012.3 |
| 20260504171708 | 56 | 228 | 11.0 | 13.0 | 0.00 | 0.00 | 0.00 | 58 | 1012.3 |
| 20260504171206 | 55 | 240 | 13.0 | 16.0 | 0.00 | 0.00 | 0.00 | 62 | 1012.3 |
| 20260504170702 | 56 | 204 | 13.0 | 15.0 | 0.00 | 0.00 | 0.00 | 61 | 1012.3 |
| 20260504170200 | 54 | 200 | 13.0 | 14.0 | 0.00 | 0.00 | 0.00 | 64 | 1012.3 |
| 20260504160118 | 55 | 207 | 15.0 | 16.0 | 0.00 | 0.00 | 0.00 | 59 | 1012.7 |
| 20260504151045 | 56 | 216 | 5.0 | 6.0 | 0.00 | 0.00 | 0.00 | 53 | 1013.4 |
| 20260504150542 | 55 | 255 | 13.0 | 15.0 | 0.00 | 0.00 | 0.00 | 57 | 1013.4 |
| 20260504141008 | 57 | 262 | 19.0 | 22.0 | 0.00 | 0.00 | 0.00 | 48 | 1013.7 |
| 20260504140505 | 56 | 257 | 17.0 | 19.0 | 0.00 | 0.00 | 0.00 | 48 | 1013.7 |
| 20260504130429 | 53 | 245 | 5.0 | 5.0 | 0.00 | 0.00 | 0.00 | 64 | 1014.0 |
| 20260504110317 | 49 | 222 | 11.0 | 12.0 | 0.00 | 0.00 | 0.00 | 80 | 1014.0 |
| 20260504100234 | 48 | 252 | 13.0 | 15.0 | 0.00 | 0.00 | 0.00 | 81 | 1013.4 |
| 20260504081628 | 46 | 256 | 5.0 | 6.0 | 0.00 | 0.00 | 0.00 | 80 | 1013.0 |
| 20260504081123 | 46 | 294 | 8.0 | 8.0 | 0.00 | 0.00 | 0.00 | 80 | 1013.0 |
| 20260504080620 | 45 | 228 | 4.0 | 4.0 | 0.00 | 0.00 | 0.00 | 81 | 1013.0 |
| 20260504080117 | 45 | 228 | 3.0 | 3.0 | 0.00 | 0.00 | 0.00 | 82 | 1013.0 |
| 20260504050433 | 46 | 270 | 2.0 | 2.0 | 0.00 | 0.00 | 0.00 | 80 | 1012.7 |
| 20260504045930 | 46 | 270 | 2.0 | 2.0 | 0.00 | 0.00 | 0.00 | 80 | 1012.7 |
| 20260504045426 | 46 | 270 | 2.0 | 2.0 | 0.00 | 0.00 | 0.00 | 81 | 1012.7 |
| 20260504044922 | 46 | 270 | 4.0 | 4.0 | 0.00 | 0.00 | 0.00 | 83 | 1012.7 |
| 20260504044419 | 46 | 270 | 2.0 | 2.0 | 0.00 | 0.00 | 0.00 | 83 | 1012.7 |
| 20260504043917 | 46 | 271 | 4.0 | 4.0 | 0.00 | 0.00 | 0.00 | 82 | 1012.7 |
| 20260504043414 | 46 | 266 | 4.0 | 4.0 | 0.00 | 0.00 | 0.00 | 81 | 1012.7 |
| 20260504042911 | 46 | 266 | 2.0 | 2.0 | 0.00 | 0.00 | 0.00 | 81 | 1012.7 |
| 20260504042408 | 46 | 266 | 2.0 | 2.0 | 0.00 | 0.00 | 0.00 | 80 | 1012.7 |
| 20260504041904 | 47 | 266 | 2.0 | 2.0 | 0.00 | 0.00 | 0.00 | 80 | 1012.7 |
| 20260504041400 | 47 | 266 | 2.0 | 2.0 | 0.00 | 0.00 | 0.00 | 80 | 1012.3 |
| 20260504040856 | 47 | 266 | 2.0 | 2.0 | 0.00 | 0.00 | 0.00 | 80 | 1012.3 |
| 20260504040354 | 47 | 266 | 2.0 | 2.0 | 0.00 | 0.00 | 0.00 | 79 | 1012.3 |
| 20260504035850 | 47 | 270 | 3.0 | 3.0 | 0.00 | 0.00 | 0.00 | 79 | 1012.3 |
| 20260504035348 | 47 | 268 | 3.0 | 3.0 | 0.00 | 0.00 | 0.00 | 80 | 1012.3 |
| 20260504034844 | 47 | 268 | 3.0 | 3.0 | 0.00 | 0.00 | 0.00 | 80 | 1012.3 |
| 20260504034342 | 47 | 268 | 4.0 | 4.0 | 0.00 | 0.00 | 0.00 | 81 | 1012.7 |
| 20260504033838 | 46 | 266 | 4.0 | 5.0 | 0.00 | 0.00 | 0.00 | 82 | 1012.7 |
| 20260504033337 | 46 | 266 | 4.0 | 4.0 | 0.00 | 0.00 | 0.00 | 82 | 1012.7 |
| 20260504032833 | 47 | 266 | 2.0 | 2.0 | 0.00 | 0.00 | 0.00 | 81 | 1012.3 |
| 20260504032330 | 47 | 273 | 4.0 | 4.0 | 0.00 | 0.00 | 0.00 | 79 | 1012.3 |
| 20260504031827 | 47 | 276 | 4.0 | 5.0 | 0.00 | 0.00 | 0.00 | 78 | 1012.3 |
| 20260504031324 | 47 | 257 | 4.0 | 5.0 | 0.00 | 0.00 | 0.00 | 76 | 1012.3 |
| 20260504030820 | 48 | 252 | 3.0 | 3.0 | 0.00 | 0.00 | 0.00 | 75 | 1012.3 |
| 20260504030318 | 48 | 246 | 6.0 | 7.0 | 0.00 | 0.00 | 0.00 | 74 | 1012.3 |
| 20260504025814 | 48 | 270 | 5.0 | 5.0 | 0.00 | 0.00 | 0.00 | 75 | 1012.0 |
| 20260504025311 | 47 | 270 | 6.0 | 6.0 | 0.00 | 0.00 | 0.00 | 76 | 1012.0 |
| 20260504024808 | 47 | 270 | 6.0 | 7.0 | 0.00 | 0.00 | 0.00 | 76 | 1012.0 |
| 20260504024304 | 47 | 264 | 4.0 | 4.0 | 0.00 | 0.00 | 0.00 | 76 | 1012.3 |
| 20260504023801 | 48 | 264 | 4.0 | 4.0 | 0.00 | 0.00 | 0.00 | 75 | 1012.3 |
| 20260504023257 | 48 | 263 | 4.0 | 4.0 | 0.00 | 0.00 | 0.00 | 74 | 1012.3 |
| 20260504022753 | 48 | 263 | 2.0 | 2.0 | 0.00 | 0.00 | 0.00 | 73 | 1012.0 |
| 20260504022250 | 48 | 258 | 4.0 | 5.0 | 0.00 | 0.00 | 0.00 | 72 | 1012.0 |
| 20260504021747 | 48 | 252 | 3.0 | 3.0 | 0.00 | 0.00 | 0.00 | 70 | 1012.0 |
| 20260504021244 | 48 | 252 | 4.0 | 4.0 | 0.00 | 0.00 | 0.00 | 67 | 1012.0 |
| 20260504020741 | 48 | 258 | 6.0 | 6.0 | 0.00 | 0.00 | 0.00 | 67 | 1012.0 |
| 20260504020237 | 48 | 213 | 6.0 | 7.0 | 0.00 | 0.00 | 0.00 | 66 | 1012.0 |
| 20260504015733 | 48 | 300 | 5.0 | 5.0 | 0.00 | 0.00 | 0.00 | 63 | 1012.0 |
| 20260504015230 | 48 | 300 | 4.0 | 4.0 | 0.00 | 0.00 | 0.00 | 59 | 1012.0 |
| 20260504014726 | 48 | 300 | 4.0 | 4.0 | 0.00 | 0.00 | 0.00 | 55 | 1012.0 |
| 20260504014223 | 48 | 300 | 2.0 | 2.0 | 0.00 | 0.00 | 0.00 | 50 | 1011.7 |
| 20260504013720 | 48 | 300 | 2.0 | 2.0 | 0.00 | 0.00 | 0.00 | 48 | 1011.7 |
| 20260504013218 | 48 | 300 | 2.0 | 2.0 | 0.00 | 0.00 | 0.00 | 48 | 1011.7 |
| 20260504012714 | 49 | 300 | 0.0 | 0.0 | 0.00 | 0.00 | 0.00 | 46 | 1011.7 |
| 20260504012213 | 49 | 300 | 0.0 | 0.0 | 0.00 | 0.00 | 0.00 | 45 | 1011.7 |
| 20260504011709 | 49 | 300 | 2.0 | 2.0 | 0.00 | 0.00 | 0.00 | 44 | 1011.7 |
| 20260504011205 | 49 | 300 | 3.0 | 3.0 | 0.00 | 0.00 | 0.00 | 43 | 1011.3 |
| 20260504010702 | 49 | 300 | 2.0 | 2.0 | 0.00 | 0.00 | 0.00 | 44 | 1011.3 |
| 20260504010157 | 50 | 300 | 2.0 | 2.0 | 0.00 | 0.00 | 0.00 | 43 | 1011.3 |
| 20260504005654 | 51 | 300 | 2.0 | 2.0 | 0.00 | 0.00 | 0.00 | 39 | 1011.0 |
| 20260504005151 | 51 | 300 | 2.0 | 2.0 | 0.00 | 0.00 | 0.00 | 38 | 1011.0 |
| 20260504004649 | 51 | 300 | 2.0 | 2.0 | 0.00 | 0.00 | 0.00 | 38 | 1011.0 |
| 20260504004146 | 51 | 300 | 2.0 | 2.0 | 0.00 | 0.00 | 0.00 | 38 | 1011.0 |
| 20260504003642 | 51 | 300 | 2.0 | 2.0 | 0.00 | 0.00 | 0.00 | 38 | 1011.0 |
| 20260504003139 | 51 | 300 | 2.0 | 2.0 | 0.00 | 0.00 | 0.00 | 38 | 1011.0 |
| 20260504002636 | 51 | 300 | 2.0 | 2.0 | 0.00 | 0.00 | 0.00 | 38 | 1011.0 |